User: anonymous   Login
Location: Wayah Bald
(35.1806°N, 83.5603°W)
Time: 01:17:50
(UTC-04:00)
Language:

Meteor 1-27 Rocket - Orbit

View from above orbital plane
View from above orbital plane
View from above satellite
View from above satellite

Ground track
Ground track

The orbit data is extracted from the following two-line orbital elements,

1 09904U 77024B   16270.46441668 -.00000140  00000-0 -90138-4 0  9999
2 09904  81.2645  24.6664 0054568 352.9490   7.0904 14.06829437 25728
Epoch (UTC): 26 September 2016 11:08:45
Eccentricity: 0.0054568
inclination: 81.2645°
perigee height: 830 km
apogee height: 910 km
right ascension of ascending node: 24.6664°
argument of perigee: 352.9490°
revolutions per day: 14.06829437
mean anomaly at epoch: 7.0904°
orbit number at epoch: 2572

The dashed part of the orbit path shows where the satellite is in the earth's shadow,  

DLR